Wind_Speed
9 8 8 8 9 9 9 10 10 9 9 9 8 8 7 7 7 7 7 7 6 5 5 5 6 6 7 7 8 8 8 8 8 8 8 9 9 10 10 11 10 11 11
9 7 7 8 9 9 9 9 10 9 9 9 9 8 8 7 7 7 7 8 8 7 6 6 7 7 8 7 8 9 9 9 9 9 9 10 10 11 12 12 12 12 13
10 9 8 7 8 9 10 10 10 10 10 10 9 9 8 7 7 7 7 8 8 9 8 8 8 8 8 7 8 9 9 9 10 11 11 11 12 12 13 13 13 14 14
10 9 10 9 10 10 10 10 10 11 11 11 10 10 9 8 8 8 9 8 8 9 10 9 9 10 10 9 9 10 10 11 11 12 12 13 14 14 14 15 16 16 16
12 11 11 11 11 10 11 11 11 11 11 11 11 10 10 9 8 8 9 8 9 10 11 11 11 11 11 11 11 11 11 12 13 13 13 13 14 15 15 16 17 17 17
13 13 12 12 11 11 11 10 11 12 12 12 11 11 11 10 9 9 9 10 11 11 12 13 13 13 12 13 12 12 13 13 14 14 14 14 14 14 15 15 16 17 18
14 14 14 14 12 12 12 11 12 13 13 13 12 13 12 12 11 10 10 11 12 13 13 14 15 15 14 14 14 14 14 14 15 15 15 15 15 14 14 14 15 16 17
15 15 15 14 13 13 13 13 14 14 14 14 14 14 14 14 14 13 13 13 14 15 16 16 16 16 16 15 15 15 14 14 14 14 15 15 16 15 15 16 16 17 17
16 16 16 16 15 14 14 15 15 15 15 15 16 16 16 16 15 15 15 15 16 16 17 17 17 17 17 17 17 17 17 16 16 16 16 16 16 17 18 19 19 19 19
18 17 17 17 16 15 15 16 16 16 16 17 17 17 17 17 16 16 16 16 17 17 18 19 18 19 20 19 18 19 19 18 18 18 18 18 18 19 19 20 20 21 21
19 19 19 18 18 17 16 17 18 18 18 18 18 18 18 18 18 18 18 19 19 20 20 20 21 21 20 19 19 19 20 20 20 20 20 20 20 21 21 21 22 23 23
21 21 21 21 20 19 18 18 19 19 19 19 19 19 19 20 20 20 20 21 21 22 22 22 22 21 21 21 21 21 21 21 21 21 21 21 22 22 22 23 24 24 24
23 23 22 22 22 22 21 20 20 20 21 21 20 20 20 21 22 22 23 23 23 24 23 23 23 22 22 22 23 23 23 22 22 22 22 22 22 23 24 24 25 25 26
25 25 25 25 25 25 23 22 22 22 23 23 22 22 22 23 23 24 25 25 25 25 25 25 24 24 24 24 24 24 24 24 24 24 24 24 25 25 25 25 26 26 27
28 28 28 26 25 25 25 24 23 23 23 24 24 24 24 25 26 26 26 27 27 26 26 25 25 26 25 25 25 25 25 25 25 26 26 26 26 26 26 26 27 27 27
30 30 29 27 27 27 27 27 26 25 25 25 26 27 27 28 29 29 29 29 29 28 28 27 27 27 27 26 26 26 27 27 27 27 27 27 27 27 27 27 27 27 27
30 31 30 29 29 29 29 27 27 27 27 27 29 30 30 30 30 31 30 30 30 31 30 29 28 28 28 27 27 28 28 27 27 28 28 28 27 28 28 28 28 28 28
31 30 29 29 29 29 29 29 29 29 30 30 30 31 31 32 32 32 32 31 31 32 32 31 30 29 29 29 29 29 29 28 28 28 28 28 28 28 28 28 29 29 29
33 32 32 32 32 33 32 31 31 32 33 32 32 32 33 33 33 33 33 33 32 32 32 32 31 31 31 31 30 29 29 29 28 28 28 28 28 28 29 29 29 29 29
34 33 33 33 33 33 33 34 34 34 34 35 34 34 34 34 34 34 34 34 34 34 35 34 33 33 32 31 31 30 30 29 29 29 29 29 29 29 29 29 30 29 29
35 35 35 35 34 34 34 34 34 34 34 34 35 35 36 36 36 35 35 35 35 35 36 35 34 34 33 33 32 31 31 30 30 29 29 29 29 29 29 30 30 30 29
37 37 37 36 35 35 34 34 34 34 35 35 36 36 37 37 36 36 36 35 35 35 36 35 35 34 34 33 32 32 31 30 30 30 30 30 30 29 30 30 30 30 30
38 38 39 38 37 36 35 35 35 36 37 37 37 37 37 37 36 36 35 35 36 35 35 35 35 34 33 32 32 31 31 31 31 31 31 31 31 30 30 30 29 29 29
38 37 36 36 36 36 37 37 37 38 38 38 37 37 37 37 36 36 36 36 36 35 35 35 33 33 33 32 31 31 31 32 32 32 32 32 31 31 31 30 30 29 29
37 36 36 35 35 36 36 37 38 38 38 38 37 37 37 37 36 36 36 36 37 36 35 34 33 32 32 31 32 32 32 32 32 33 32 31 31 31 31 31 30 30 30
35 35 34 34 35 35 36 36 37 37 37 37 37 37 37 37 37 37 36 36 36 36 34 33 33 32 32 32 32 32 32 32 32 31 30 30 30 31 31 30 30 29 30
Wind_Direction
7 7 9 17 17 13 13 13 15 16 17 17 18 19 17 18 17 15 7 2 352 341 339 335 322 311 304 290 283 280 275 271 266 260 258 259 258 259 260 261 265 266 266
5 10 9 12 15 13 9 8 10 11 11 10 9 11 12 15 13 10 3 0 357 350 342 331 325 321 316 307 292 279 273 268 263 262 261 263 265 264 263 264 264 266 268
2 3 4 12 11 6 3 1 359 357 356 356 356 357 357 359 357 354 350 350 348 348 345 335 327 320 312 304 295 289 283 278 271 265 260 259 261 263 264 265 266 268 273
352 357 357 5 4 356 353 350 349 349 347 347 350 351 351 351 348 346 343 339 339 337 337 330 327 323 317 306 298 291 285 279 279 275 268 265 263 264 265 266 266 268 272
341 349 353 355 351 347 346 345 344 344 345 346 346 345 343 341 340 338 334 331 331 331 331 326 322 320 317 308 301 293 288 284 281 279 275 275 271 268 266 267 269 270 271
327 333 340 344 343 338 340 341 342 339 337 337 334 333 331 329 328 329 328 325 323 323 324 322 319 317 315 313 305 298 294 292 289 284 279 278 278 276 274 270 268 270 271
318 321 326 332 332 329 331 332 331 328 325 324 322 320 321 319 318 318 320 320 319 319 319 318 317 316 311 310 309 306 302 297 293 286 283 280 278 277 276 273 272 271 272
314 317 319 323 324 323 324 324 323 323 321 317 314 311 313 315 312 310 311 312 313 315 317 316 318 316 311 310 311 309 306 304 298 291 287 282 279 275 277 276 277 277 275
305 309 313 314 314 317 318 319 319 318 320 317 309 309 310 311 310 307 306 305 307 311 313 312 313 313 311 310 309 307 303 303 302 296 292 287 284 281 280 279 279 278 277
301 303 306 306 307 310 311 313 313 313 314 314 311 307 306 306 306 305 304 304 304 307 307 307 307 306 307 307 304 302 299 297 296 293 290 287 284 282 282 282 282 281 279
298 300 301 300 301 303 305 306 306 306 308 308 308 306 303 303 303 302 302 302 302 303 303 304 303 303 301 302 303 300 296 294 293 291 289 287 283 281 281 282 282 282 281
289 293 295 294 294 296 298 299 300 301 303 304 304 304 302 301 302 301 300 300 299 302 301 302 302 301 300 299 299 298 296 294 292 290 288 285 284 283 283 282 282 283 284
284 286 289 290 290 290 292 294 296 298 300 301 301 301 301 301 301 301 299 299 298 298 297 300 300 298 298 298 297 296 294 292 290 290 288 286 285 284 284 283 283 284 285
278 282 284 286 285 287 287 289 292 295 297 297 297 298 299 300 300 300 299 298 299 297 296 297 297 297 296 295 295 294 292 290 289 288 287 286 285 284 283 284 284 284 284
274 278 282 280 281 283 284 286 288 291 293 293 294 296 296 296 296 297 299 299 299 298 296 295 296 296 295 294 294 292 291 290 289 289 288 287 286 285 284 284 284 284 284
272 274 277 279 284 283 284 284 285 287 288 289 291 293 294 294 295 296 297 299 299 298 298 297 296 296 295 294 294 293 292 290 289 289 289 287 285 285 285 285 285 284 284
275 277 279 279 279 280 282 283 281 284 286 287 289 290 291 293 294 294 295 297 297 296 296 297 297 296 295 294 294 294 292 291 290 289 288 287 285 285 285 285 285 285 285
275 277 278 277 276 278 278 279 280 283 285 286 287 287 288 290 293 294 294 295 295 294 295 295 297 297 295 294 294 293 292 292 291 290 289 288 288 287 286 286 286 284 284
276 277 278 277 278 279 281 280 279 281 284 285 286 287 288 289 291 292 292 292 293 294 295 295 295 294 293 293 291 291 291 292 291 291 291 290 289 289 288 287 286 285 285
275 279 277 277 279 280 281 282 281 282 284 285 285 286 287 287 289 290 291 291 291 292 293 293 293 292 291 290 289 288 289 290 292 292 293 291 290 289 288 287 286 286 286
277 280 281 279 279 279 280 281 282 284 285 285 285 286 286 287 287 288 289 289 289 290 291 291 291 291 290 289 288 287 287 287 288 290 291 292 292 290 289 287 287 286 287
278 280 281 282 280 280 281 281 281 283 284 284 284 284 285 286 286 287 288 288 288 289 290 290 290 289 289 289 288 287 287 287 288 289 289 289 290 290 290 289 287 286 286
281 282 282 280 280 281 281 282 282 283 283 283 283 284 285 284 284 286 288 288 288 289 289 290 288 288 288 288 288 288 286 286 288 289 290 289 289 289 289 289 288 287 287
280 280 279 279 278 280 281 281 282 282 282 281 282 284 284 284 284 286 288 288 289 288 289 289 289 289 288 287 287 286 286 287 288 289 290 290 288 288 288 288 288 287 286
278 280 280 280 281 283 282 282 282 282 281 282 282 285 285 285 286 287 287 287 287 287 286 286 286 286 287 287 286 287 287 287 287 287 287 287 287 286 287 287 287 286 285
281 280 282 282 283 283 284 284 283 283 283 283 284 285 284 285 286 286 286 286 286 286 286 285 285 286 286 286 286 287 288 288 286 285 285 287 288 287 285 286 285 285 284
Height
5922 5920 5919 5917 5916 5915 5914 5913 5911 5910 5908 5907 5905 5904 5902 5901 5900 5899 5897 5896 5894 5893 5892 5891 5890 5888 5887 5886 5885 5884 5884 5884 5884 5883 5883 5883 5882 5882 5882 5882 5881 5881 5881
5921 5920 5919 5918 5916 5915 5914 5912 5911 5909 5908 5907 5905 5904 5902 5901 5899 5898 5897 5895 5894 5892 5891 5890 5888 5887 5885 5883 5882 5881 5881 5881 5881 5881 5880 5880 5880 5879 5879 5879 5878 5878 5878
5922 5920 5919 5918 5916 5915 5913 5912 5911 5909 5908 5906 5905 5903 5901 5900 5899 5897 5896 5894 5893 5891 5890 5888 5887 5885 5883 5881 5880 5878 5878 5878 5877 5877 5877 5877 5877 5876 5876 5875 5875 5875 5874
5921 5920 5919 5917 5916 5914 5913 5912 5910 5909 5907 5905 5904 5902 5900 5899 5897 5896 5895 5893 5891 5890 5888 5887 5885 5883 5881 5879 5878 5877 5876 5875 5874 5873 5873 5873 5873 5873 5872 5872 5871 5871 5870
5920 5919 5918 5917 5915 5914 5912 5911 5909 5907 5906 5904 5902 5901 5899 5898 5896 5894 5893 5891 5890 5888 5886 5885 5883 5881 5879 5877 5875 5874 5873 5872 5871 5870 5869 5869 5868 5868 5868 5867 5867 5866 5865
5918 5918 5917 5915 5914 5913 5911 5910 5908 5906 5904 5902 5901 5899 5897 5896 5894 5893 5891 5889 5888 5886 5884 5883 5881 5879 5877 5875 5873 5871 5870 5868 5867 5866 5865 5865 5864 5864 5863 5863 5862 5861 5860
5917 5915 5914 5913 5912 5911 5909 5907 5906 5904 5902 5900 5898 5897 5895 5894 5892 5891 5889 5887 5885 5883 5881 5880 5878 5876 5874 5871 5870 5868 5866 5864 5863 5862 5861 5861 5860 5859 5858 5858 5857 5856 5856
5914 5913 5912 5910 5910 5908 5907 5905 5904 5902 5900 5898 5896 5894 5893 5891 5890 5888 5886 5884 5882 5880 5878 5876 5875 5873 5871 5869 5867 5865 5863 5861 5859 5858 5857 5856 5855 5854 5853 5853 5852 5851 5851
5911 5910 5909 5908 5907 5906 5904 5903 5901 5899 5897 5895 5893 5891 5890 5888 5886 5885 5883 5881 5879 5877 5875 5873 5871 5869 5867 5865 5863 5861 5859 5857 5855 5854 5852 5851 5850 5849 5848 5847 5846 5846 5845
5908 5907 5906 5905 5904 5902 5901 5900 5898 5896 5894 5892 5890 5888 5886 5885 5883 5881 5879 5877 5875 5873 5871 5869 5867 5865 5862 5860 5858 5856 5854 5853 5851 5849 5847 5846 5844 5843 5842 5841 5840 5839 5838
5905 5904 5903 5901 5900 5898 5897 5896 5894 5893 5890 5889 5887 5885 5883 5880 5878 5876 5875 5872 5870 5868 5866 5864 5862 5859 5857 5855 5853 5851 5849 5847 5845 5843 5842 5840 5838 5837 5836 5835 5834 5832 5831
5900 5900 5899 5897 5895 5894 5893 5892 5890 5888 5886 5884 5882 5880 5878 5876 5874 5872 5870 5867 5864 5863 5861 5858 5856 5854 5852 5850 5848 5846 5844 5841 5839 5837 5835 5834 5832 5831 5829 5828 5827 5825 5824
5895 5894 5893 5892 5890 5889 5888 5886 5885 5883 5882 5880 5878 5876 5874 5871 5869 5867 5865 5862 5860 5857 5855 5853 5850 5848 5846 5844 5842 5839 5837 5835 5833 5831 5829 5827 5826 5824 5822 5821 5820 5818 5817
5889 5888 5887 5886 5884 5882 5882 5881 5880 5878 5876 5874 5872 5870 5868 5866 5864 5861 5859 5856 5854 5851 5848 5846 5844 5841 5839 5837 5835 5832 5830 5828 5826 5824 5822 5820 5818 5817 5815 5813 5812 5811 5809
5882 5881 5880 5878 5876 5876 5875 5875 5873 5872 5870 5868 5866 5864 5862 5860 5858 5855 5853 5850 5847 5845 5842 5840 5837 5834 5832 5830 5828 5825 5823 5821 5819 5816 5814 5812 5810 5808 5807 5805 5804 5802 5801
5874 5873 5873 5871 5870 5869 5868 5867 5866 5865 5863 5862 5860 5858 5856 5853 5851 5848 5846 5843 5840 5837 5835 5832 5830 5827 5825 5823 5820 5818 5815 5813 5811 5809 5806 5804 5802 5800 5798 5797 5795 5794 5792
5866 5865 5864 5864 5863 5862 5861 5860 5858 5857 5856 5855 5853 5850 5848 5846 5843 5841 5838 5836 5833 5830 5827 5824 5822 5820 5817 5815 5812 5810 5807 5805 5803 5800 5798 5796 5794 5792 5790 5788 5787 5785 5783
5857 5856 5856 5856 5855 5854 5853 5852 5850 5849 5848 5846 5844 5842 5840 5837 5835 5833 5830 5827 5824 5821 5818 5816 5813 5811 5809 5807 5804 5802 5799 5797 5794 5792 5789 5787 5785 5783 5782 5780 5778 5776 5775
5849 5848 5848 5847 5846 5845 5844 5842 5841 5840 5838 5837 5835 5833 5831 5829 5827 5824 5821 5818 5815 5812 5810 5807 5805 5803 5800 5798 5796 5793 5791 5788 5786 5783 5781 5779 5777 5775 5773 5771 5770 5768 5766
5841 5840 5839 5838 5836 5836 5835 5834 5832 5831 5829 5828 5826 5824 5822 5820 5818 5815 5812 5809 5806 5803 5801 5799 5796 5793 5791 5789 5786 5784 5782 5780 5778 5775 5773 5771 5768 5766 5764 5762 5761 5759 5757
5832 5831 5830 5829 5827 5826 5825 5824 5823 5821 5820 5818 5816 5814 5812 5810 5807 5805 5802 5799 5796 5794 5791 5789 5787 5784 5781 5779 5777 5775 5772 5771 5769 5767 5765 5762 5760 5757 5755 5753 5752 5750 5748
5822 5821 5820 5818 5817 5816 5815 5814 5813 5812 5809 5807 5805 5803 5801 5799 5796 5794 5791 5788 5786 5783 5781 5779 5777 5774 5772 5769 5767 5765 5763 5761 5760 5758 5756 5753 5751 5748 5746 5744 5742 5741 5739
5812 5811 5810 5809 5808 5806 5805 5804 5803 5801 5799 5796 5794 5793 5790 5787 5785 5783 5781 5778 5775 5773 5771 5769 5766 5764 5762 5760 5757 5755 5754 5752 5750 5748 5746 5744 5742 5739 5737 5735 5733 5731 5730
5802 5800 5799 5798 5797 5796 5794 5792 5791 5789 5787 5785 5783 5781 5779 5777 5775 5773 5771 5768 5766 5763 5761 5758 5756 5754 5751 5750 5748 5746 5744 5742 5740 5738 5736 5734 5732 5730 5728 5726 5724 5723 5721
5792 5790 5789 5787 5786 5784 5783 5781 5779 5776 5775 5772 5771 5770 5767 5765 5763 5762 5760 5757 5755 5752 5750 5748 5746 5744 5742 5739 5738 5736 5734 5732 5730 5728 5726 5724 5723 5721 5719 5717 5715 5713 5712
5780 5779 5777 5776 5774 5773 5770 5769 5767 5764 5762 5761 5760 5758 5756 5754 5753 5750 5749 5746 5744 5741 5739 5737 5735 5733 5731 5729 5727 5726 5724 5722 5720 5719 5717 5715 5713 5712 5710 5708 5706 5704 5703